Location: Laterina
(43.5167°N, 11.7167°E)
Time: 16:06:58
(UTC+00:00)

Resurs 1-3 - Pass Details

Date: 24 September 2020
Orbit: 630 x 632 km, 97.9° (Epoch: 26 October)

Event Time Altitude Azimuth Distance (km) Brightness Sun altitude
Exits shadow 18:53:23 35° 59° (ENE) 1,032 4.3 -19.9°
Drops below altitude 10° 18:57:04 10° 4° (N) 2,023 6.4 -20.6°
Sets 18:59:24 0° 356° (N) 2,935 7.3 -21.0°
